パンスターズ彗星

C/2023 Q1 ( PanSTARRS )

English version
Home page
Updated on February 10, 2025

---------------------------------------------------------------------

・ プロフィール

発見日 2023年8月20日
発見光度 22.0等
発見者 Pan-STARRS 1 telescope (Haleakala)

・ 写真集

・ 軌道要素

Epoch 2024 Oct. 17.0 TT = JDT 2460600.5
T 2024 Dec. 1.14154 TT                                  Rudenko
q   2.5757118            (2000.0)            P               Q
z  -0.0020651      Peri.   84.41050     -0.00254366     -0.99724504
 +/-0.0000028      Node     7.13527     +0.50180367     -0.06539767
e   1.0053191      Incl.   36.64344     +0.86497781     +0.03500684
From 459 observations 2023 July 25-2024 Nov. 12, mean residual 1".0.

・ 星図

・ 光度変化

        m1 = 8.5 + 5 logΔ + 12.0 log r

---------------------------------------------------------------------

軌道要素はM.P.E.C. 2024-V192に掲載されたものです。
星図はステラナビゲータ Ver.11 (アストロアーツ) で作成したものです。
光度グラフはComet for Windowsで作成したものです。

---------------------------------------------------------------------

Copyright(C) Seiichi Yoshida (comet@aerith.net). All rights reserved.